Date,TemperatureHighF,TemperatureAvgF,TemperatureLowF,DewpointHighF,DewpointAvgF,DewpointLowF,HumidityHigh,HumidityAvg,HumidityLow,PressureMaxIn,PressureMinIn,WindSpeedMaxMPH,WindSpeedAvgMPH,GustSpeedMaxMPH,PrecipitationSumIn
2013-1-1,35,28,23,32,21,14,91,72,64,0.00,40.00,7,2,10,0.00
2013-1-2,27,24,22,23,18,14,86,72,62,0.00,40.00,7,3,10,1.14
2013-1-3,31,28,21,21,17,10,67,61,54,0.00,40.00,91,8,0,0.00
2013-1-4,36,31,28,23,19,14,72,58,46,0.00,40.00,93,10,10,0.00
2013-1-5,39,31,27,28,24,21,80,71,60,0.00,40.00,6,3,10,0.00
2013-1-6,40,37,34,32,30,25,81,73,64,0.00,40.00,6,2,8,5.67
2013-1-7,40,34,29,27,25,23,77,67,56,0.00,40.00,91,6,8,0.00
2013-1-8,45,38,28,28,25,23,78,59,44,0.00,40.00,90,4,8,0.00
2013-1-9,50,42,34,37,30,27,77,62,41,0.00,40.00,16,8,24,0.00
2013-1-10,42,37,29,34,29,27,91,73,58,0.00,40.00,4,1,6,0.00
2013-1-11,51,45,39,46,34,25,93,69,50,0.00,40.00,11,7,14,1.14
2013-1-12,63,58,53,55,51,48,91,81,69,0.00,40.00,93,4,5,0.00
2013-1-13,58,57,56,55,54,52,91,89,86,0.00,40.00,4,2,5,0.00
2013-1-15,35,30,28,25,21,18,71,65,56,0.00,40.00,91,3,2,0.00
2013-1-16,39,33,29,27,23,18,80,64,49,0.00,40.00,11,2,14,1.14
2013-1-17,39,34,27,30,26,16,80,69,62,0.00,40.00,11,3,14,1.14
2013-1-18,38,27,20,19,14,5,69,54,41,0.00,40.00,11,4,14,1.14
2013-1-19,53,46,37,28,23,16,45,39,33,0.00,40.00,11,6,17,0.00
2013-1-20,50,30,22,32,18,10,69,57,42,0.00,40.00,24,11,30,11.34
2013-1-21,24,21,19,19,15,10,90,77,56,0.00,40.00,11,4,15,7.39
2013-1-22,11,9,8,7,5,0,86,79,63,0.00,40.00,50,9,0,2.28
2013-1-23,15,14,13,12,10,10,86,85,84,0.00,40.00,89,5,1,0.00
2013-1-24,22,17,9,16,9,3,88,69,46,0.00,40.00,7,1,8,0.00
2013-1-25,20,14,9,18,8,5,85,76,68,0.00,40.00,11,2,6,10.77
2013-1-26,27,23,17,25,19,14,89,83,73,0.00,40.00,2,0,4,13.03
2013-1-27,32,24,15,27,17,12,88,71,54,0.00,40.00,7,2,10,2.83
2013-1-28,51,42,29,48,39,27,93,90,81,0.00,40.00,11,5,14,9.64
2013-1-29,46,42,39,45,39,36,97,95,91,0.00,40.00,6,2,8,9.06
2013-1-30,56,42,38,48,37,25,88,78,69,0.00,40.00,154,30,24,0.00
2013-1-31,39,25,19,34,20,12,91,78,59,0.00,40.00,18,12,34,9.09
2013-2-1,22,19,14,18,14,5,91,76,59,0.00,40.00,15,7,22,5.70
2013-2-2,23,18,13,23,13,5,93,81,67,0.00,40.00,6,3,10,20.97
2013-2-3,23,20,19,21,18,12,93,85,68,0.00,40.00,11,4,17,12.47
2013-2-4,25,21,18,23,14,9,91,73,60,0.00,40.00,9,5,15,3.97
2013-2-5,31,25,20,25,21,19,93,83,62,0.00,40.00,3,1,6,1.14
2013-2-6,33,26,16,30,19,10,89,71,50,0.00,40.00,9,2,12,0.00
2013-2-7,45,32,16,28,20,12,81,59,41,0.00,40.00,7,3,10,0.00
2013-2-8,40,31,22,34,28,19,94,85,68,0.00,40.00,13,4,15,8.50
2013-2-9,32,24,17,23,19,14,88,77,58,0.00,40.00,6,1,8,1.14
2013-2-10,48,33,13,25,18,10,89,56,31,0.00,40.00,9,4,12,0.00
2013-2-11,52,42,36,43,32,25,90,70,44,0.00,40.00,22,10,24,0.00
2013-2-12,36,32,26,28,25,23,86,73,66,0.00,40.00,14,7,21,0.00
2013-2-13,38,31,24,30,26,21,89,77,59,0.00,40.00,3,1,4,0.00
2013-2-14,42,34,25,34,29,23,88,81,64,0.00,40.00,15,4,21,4.53
2013-2-15,41,34,29,30,25,18,76,67,50,0.00,40.00,17,6,28,3.97
2013-2-16,33,26,21,25,14,7,84,60,37,0.00,40.00,89,2,0,0.00
2013-2-17,23,20,18,21,16,10,93,80,63,0.00,40.00,90,3,4,3.42
2013-2-18,43,35,16,28,20,10,73,51,44,0.00,40.00,11,8,15,0.00
2013-2-19,46,39,28,37,31,21,90,76,54,0.00,40.00,94,10,21,10.20
2013-2-20,24,21,19,16,13,9,85,68,59,0.00,40.00,12,7,14,0.00
2013-2-21,24,22,19,23,16,14,78,72,66,0.00,40.00,151,4,2,2.83
2013-2-22,38,30,18,34,25,14,93,82,67,0.00,40.00,8,4,12,0.00
2013-2-23,39,34,30,34,28,23,90,75,59,0.00,40.00,9,3,17,0.00
2013-2-24,34,32,29,28,25,23,77,73,68,0.00,40.00,11,5,15,0.00
2013-2-25,43,36,29,28,25,21,90,62,45,0.00,40.00,46,3,1,0.00
2013-2-26,42,33,25,34,26,21,89,72,56,0.00,40.00,9,3,12,10.19
2013-3-1,32,29,25,28,24,19,86,79,75,0.00,40.00,45,2,2,0.00
2013-3-2,30,26,24,27,23,19,86,82,77,0.00,40.00,3,1,4,2.28
2013-3-3,30,26,24,27,22,16,91,82,64,0.00,40.00,6,2,14,27.19
2013-3-4,34,26,20,23,19,18,85,71,55,0.00,40.00,10,2,14,1.14
2013-3-5,40,27,16,30,23,14,91,81,60,0.00,40.00,6,2,8,0.00
2013-3-6,43,35,30,32,29,27,85,78,60,0.00,40.00,7,3,10,0.00
2013-3-7,40,34,30,34,31,28,90,86,78,0.00,40.00,6,1,8,12.48
2013-3-8,39,33,28,32,30,25,90,83,73,0.00,40.00,3,1,6,2.83
2013-3-9,54,40,24,34,30,23,93,67,41,0.00,40.00,45,2,2,0.00
2013-3-10,67,56,47,36,32,27,49,39,31,0.00,40.00,9,5,14,0.00
2013-3-11,60,55,42,48,38,32,94,59,34,0.00,40.00,12,6,14,15.86
2013-3-12,45,39,34,39,32,25,85,76,67,0.00,40.00,91,8,14,0.00
2013-3-13,36,32,27,30,26,18,93,76,56,0.00,40.00,17,6,24,4.53
2013-3-14,34,30,26,23,18,14,77,61,51,0.00,40.00,9,4,24,0.00
2013-3-15,40,35,30,32,28,21,93,75,62,0.00,40.00,13,4,19,2.28
2013-3-16,36,31,28,34,29,27,95,92,84,0.00,40.00,5,1,19,9.63
2013-3-17,34,29,25,28,22,16,91,73,51,0.00,40.00,6,2,8,0.00
2013-3-18,41,33,24,37,28,16,94,81,64,0.00,40.00,10,5,14,19.26
2013-3-19,41,31,28,39,24,19,94,72,59,0.00,40.00,16,10,21,2.28
2013-3-20,31,29,24,28,19,14,93,64,50,0.00,40.00,15,7,19,0.00
2013-3-21,29,27,22,28,24,18,94,85,71,0.00,40.00,50,8,19,10.20
2013-3-22,33,30,24,27,20,18,90,67,56,0.00,40.00,93,5,0,0.00
2013-3-23,40,30,18,28,22,16,89,71,49,0.00,40.00,4,1,8,0.00
2013-3-24,36,29,19,27,22,18,90,75,53,0.00,40.00,7,3,10,0.00
2013-3-25,37,33,30,32,30,27,97,88,75,0.00,40.00,6,3,10,14.20
2013-3-26,40,36,33,34,32,28,93,86,73,0.00,40.00,9,4,14,8.49
2013-3-27,42,38,33,32,30,27,93,71,53,0.00,40.00,50,6,14,5.67
2013-3-28,37,35,33,32,32,32,94,91,88,0.00,40.00,2,1,4,8.50
2013-3-29,50,44,32,32,26,21,73,48,34,0.00,40.00,91,5,0,0.00
2013-3-30,56,42,28,28,24,19,84,54,27,0.00,40.00,6,1,8,0.00
2013-3-31,55,48,41,45,31,-100,85,55,36,0.00,40.00,7,3,10,0.00
2013-4-1,49,37,31,41,24,12,86,59,33,0.00,40.00,13,5,15,1.14
2013-4-2,38,32,28,21,16,10,64,49,33,0.00,40.00,14,4,17,0.00
2013-4-3,37,32,19,23,16,0,67,50,36,0.00,40.00,7,2,17,0.00
2013-4-4,57,36,25,21,14,7,67,43,15,0.00,40.00,6,2,12,0.00
2013-4-8,74,69,60,52,46,41,59,46,36,0.00,40.00,11,6,17,4.53
2013-4-9,78,58,45,54,44,39,85,64,36,0.00,40.00,14,3,17,0.00
2013-4-10,56,47,40,52,44,37,95,91,72,0.00,40.00,8,2,15,14.17
2013-4-11,42,40,37,39,37,34,95,93,90,0.00,40.00,7,4,12,7.36
2013-4-12,52,42,39,50,37,32,95,84,64,0.00,40.00,17,5,22,3.97
2013-4-13,44,41,37,37,33,28,89,75,58,0.00,40.00,12,6,22,2.83
2013-4-14,51,43,33,36,32,30,85,67,53,0.00,40.00,6,1,19,0.00
2013-4-15,73,60,47,48,41,32,67,52,38,0.00,40.00,12,5,17,0.00
2013-4-16,67,56,50,57,49,46,94,81,64,0.00,40.00,10,4,17,10.20
2013-4-17,58,54,50,48,36,28,94,53,40,0.00,40.00,47,4,14,0.00
2013-4-18,86,69,47,59,52,36,81,59,31,0.00,40.00,14,6,17,0.00
2013-4-19,72,55,41,59,43,27,94,67,51,0.00,40.00,16,8,22,2.83
2013-4-20,43,38,33,32,27,21,93,63,44,0.00,40.00,15,7,22,6.25
2013-4-21,45,37,29,30,27,23,89,65,42,0.00,40.00,8,2,19,0.00
2013-4-22,66,50,34,34,29,23,78,46,27,0.00,40.00,7,3,12,0.00
2013-4-23,74,59,43,37,32,25,62,39,24,0.00,40.00,9,5,14,0.00
2013-4-24,65,48,37,54,41,34,94,82,36,0.00,40.00,10,4,14,14.19
2013-4-25,55,43,33,41,33,27,91,73,36,0.00,40.00,11,3,14,2.83
2013-4-26,56,45,32,37,32,30,93,63,40,0.00,40.00,5,1,14,0.00
2013-4-27,69,55,40,39,33,28,72,45,24,0.00,40.00,6,2,8,0.00
2013-4-28,62,56,51,54,44,-100,91,70,42,0.00,40.00,9,3,12,8.50
2013-4-29,65,58,54,55,52,48,90,81,63,0.00,40.00,8,3,12,0.00
2013-4-30,76,64,55,55,52,48,94,70,40,0.00,40.00,8,3,12,0.00
2013-5-1,80,68,56,54,49,45,78,55,31,0.00,40.00,9,4,12,0.00
2013-5-2,79,68,57,45,38,32,49,35,22,0.00,40.00,6,3,12,0.00
2013-5-3,78,68,57,41,36,30,50,33,20,0.00,40.00,9,5,12,0.00
2013-5-4,74,63,54,41,37,32,64,41,22,0.00,40.00,7,4,12,0.00
2013-5-5,76,64,52,43,37,23,66,40,16,0.00,40.00,9,3,12,0.00
2013-5-6,75,62,50,48,36,25,62,40,23,0.00,40.00,7,3,12,0.00
2013-5-7,74,64,53,57,51,48,89,67,41,0.00,40.00,6,2,10,0.00
2013-5-8,74,63,55,55,53,50,93,74,46,0.00,40.00,4,1,8,1.14
2013-5-9,77,64,54,57,52,41,94,70,29,0.00,40.00,3,1,6,0.00
2013-5-10,75,64,52,61,51,-100,94,71,42,0.00,40.00,7,2,10,3.97
2013-5-11,55,48,43,48,43,41,94,86,71,0.00,40.00,11,3,14,19.26
2013-5-12,50,44,36,43,31,-100,91,65,42,0.00,40.00,19,7,24,0.00
2013-5-13,51,42,36,32,28,23,84,55,36,0.00,40.00,8,2,24,0.00
2013-5-14,57,48,35,39,32,27,84,57,45,0.00,40.00,9,4,15,0.00
2013-5-15,82,66,52,57,47,37,78,54,31,0.00,40.00,18,6,22,0.00
2013-5-16,79,60,50,52,25,-100,90,53,16,0.00,40.00,7,2,22,0.00
2013-5-17,69,60,48,48,39,-100,81,56,37,0.00,40.00,6,2,12,0.00
2013-5-18,76,65,55,54,46,41,71,53,34,0.00,40.00,5,2,8,0.00
2013-5-19,84,72,60,61,58,48,84,65,45,0.00,40.00,7,3,10,0.00
2013-5-20,89,76,63,66,62,57,86,66,42,0.00,40.00,6,2,10,0.00
2013-5-21,88,77,70,68,64,59,88,69,40,0.00,40.00,7,2,12,0.00
2013-5-22,87,78,67,64,60,54,89,58,37,0.00,40.00,8,2,12,0.00
2013-5-23,72,61,44,63,55,41,93,84,66,0.00,40.00,8,2,12,4.53
2013-5-24,47,44,38,41,34,32,94,73,58,0.00,40.00,5,2,12,0.00
2013-5-25,59,48,35,41,35,32,93,66,36,0.00,40.00,9,2,12,0.00
2013-5-26,65,51,36,41,36,30,91,61,28,0.00,40.00,4,1,12,0.00
2013-5-27,70,54,38,52,40,32,91,66,27,0.00,40.00,4,1,10,5.11
2013-5-28,68,57,52,61,53,48,94,89,80,0.00,40.00,6,3,8,9.64
2013-6-4,67,61,49,46,41,36,85,51,32,0.00,40.00,6,2,10,0.00
2013-6-5,71,60,47,52,46,42,88,63,36,0.00,40.00,7,3,16,0.00
2013-6-6,60,57,54,58,54,49,94,89,69,0.00,40.00,6,2,12,3.30
2013-6-7,60,56,54,55,53,53,94,91,79,0.00,40.00,4,2,9,0.00
2013-6-8,69,60,53,54,52,49,92,78,50,0.00,40.00,9,2,16,0.00
2013-6-9,79,66,51,60,54,49,91,68,42,0.00,40.00,6,2,12,0.00
2013-6-10,74,68,63,68,64,56,92,85,62,0.00,40.00,8,2,17,12.27
2013-6-11,74,67,62,63,61,60,93,83,61,0.00,40.00,12,4,19,0.00
2013-6-12,76,68,61,67,62,58,91,81,66,0.00,40.00,4,1,9,0.00
2013-6-13,68,64,58,65,60,55,93,88,69,0.00,40.00,11,3,24,3.93
2013-6-14,72,62,55,58,55,51,92,79,50,0.00,40.00,8,2,14,0.00
2013-6-15,80,65,47,58,51,45,92,65,33,0.00,40.00,6,2,13,0.00
2013-6-16,79,71,64,64,60,55,83,70,56,0.00,40.00,16,6,26,0.55
2013-6-17,82,72,61,65,61,56,89,71,46,0.00,40.00,11,2,18,1.10
2013-6-18,71,64,55,60,56,46,94,76,53,0.00,40.00,10,3,17,1.10
2013-6-19,73,61,49,54,48,40,91,65,34,0.00,40.00,6,2,11,0.00
2013-6-20,77,62,50,53,48,41,87,64,27,0.00,40.00,7,2,12,0.00
2013-6-22,87,81,75,66,64,63,71,57,46,0.00,40.00,7,2,14,0.00
2013-6-23,88,80,71,68,66,64,81,64,45,0.00,40.00,4,2,9,0.00
2013-6-24,89,81,70,67,64,61,77,57,44,0.00,40.00,9,3,14,0.00
2013-6-25,88,75,67,67,64,60,93,70,39,0.00,40.00,12,4,23,2.79
2013-6-26,85,74,66,68,65,63,93,74,50,0.00,40.00,9,3,17,1.69
2013-6-27,83,72,66,68,66,63,93,83,53,0.00,40.00,4,2,14,0.55
2013-6-28,78,71,65,66,64,62,92,77,58,0.00,40.00,10,3,17,0.00
2013-6-29,68,65,64,64,63,62,94,92,86,0.00,40.00,2,1,6,2.20
2013-7-1,70,68,65,64,62,60,85,82,80,0.00,40.00,6,4,12,0.00
2013-7-2,77,69,62,66,62,59,88,78,63,0.00,40.00,6,2,12,0.00
2013-7-3,84,76,64,71,67,61,93,75,60,0.00,40.00,4,2,10,0.00
2013-7-4,74,70,69,68,67,66,91,89,82,0.00,40.00,3,1,7,0.00
2013-7-5,80,74,69,67,66,65,92,77,63,0.00,40.00,6,-34,12,0.00
2013-7-6,74,70,68,70,67,65,93,90,85,0.00,40.00,2,1,6,0.55
2013-7-7,79,73,70,69,67,64,89,82,60,0.00,40.00,6,2,12,0.00
2013-7-8,85,75,69,69,59,-100,92,69,57,0.00,40.00,4,3,11,2.20
2013-7-9,69,69,69,67,66,66,92,91,90,0.00,40.00,4,2,9,0.00
2013-7-16,90,82,75,72,71,71,86,69,54,0.00,40.00,2,2,7,0.00
2013-7-17,93,83,73,74,71,69,88,67,46,0.00,40.00,6,3,12,0.00
2013-7-18,93,83,76,75,71,66,84,69,44,0.00,40.00,7,3,16,0.00
2013-7-19,95,84,73,71,70,65,85,63,42,0.00,40.00,14,4,23,0.00
2013-7-20,77,67,67,70,60,-100,94,87,73,0.00,40.00,7,2,12,4.48
2013-7-21,80,76,67,65,64,63,92,69,55,0.00,40.00,3,2,7,0.00
2013-7-22,79,73,63,70,66,60,92,80,67,0.00,40.00,3,2,6,0.00
2013-7-23,82,72,65,68,64,58,92,77,54,0.00,40.00,9,3,16,2.24
2013-7-24,72,65,55,58,51,48,89,62,43,0.00,40.00,6,2,13,0.00
2013-7-25,76,66,52,54,50,45,89,60,33,0.00,40.00,6,3,14,0.00
2013-7-26,81,69,55,60,56,51,87,65,41,0.00,40.00,4,2,11,0.00
2013-7-27,69,64,62,64,58,56,88,81,74,0.00,40.00,4,2,7,0.55
2013-7-28,69,63,58,60,54,45,92,74,43,0.00,40.00,8,3,19,0.00
2013-7-29,71,66,58,57,54,49,88,65,45,0.00,40.00,10,4,18,0.00
2013-7-30,77,66,55,58,56,52,91,71,49,0.00,40.00,4,2,9,0.00
2013-7-31,79,70,60,64,59,55,87,71,51,0.00,40.00,5,2,9,0.00
2013-8-1,75,68,64,64,62,60,91,81,63,0.00,40.00,8,3,16,1.10
2013-8-2,64,63,62,60,59,58,89,87,85,0.00,40.00,3,1,6,0.00
2013-8-25,83,62,58,64,43,-100,86,66,40,0.00,40.00,2,1,9,0.00
2013-8-26,85,76,71,62,58,56,62,55,42,0.00,40.00,7,3,13,0.00
2013-8-27,80,76,73,69,68,66,83,76,62,0.00,40.00,7,6,17,0.00
2013-8-28,71,71,71,68,68,68,91,91,91,0.00,40.00,2,2,4,0.00
2013-8-29,83,75,67,70,66,65,93,76,56,0.00,40.00,4,2,8,0.00
2013-8-30,86,74,66,69,66,63,92,76,51,0.00,40.00,6,2,11,0.00
2013-8-31,79,74,70,70,67,66,90,80,68,0.00,40.00,4,2,11,0.00
2013-9-1,80,66,66,70,54,-100,92,80,68,0.00,40.00,2,1,9,0.00
2013-9-2,75,73,72,68,66,66,81,80,76,0.00,40.00,2,1,9,0.00
2013-9-3,65,64,64,56,55,55,71,71,71,0.00,40.00,4,3,10,0.00
2013-9-4,75,71,67,56,55,52,68,57,44,0.00,40.00,9,6,16,0.00
2013-9-5,69,65,58,62,52,45,80,63,44,0.00,40.00,4,2,12,0.00
2013-9-6,71,62,53,50,47,43,85,58,39,0.00,40.00,4,2,7,0.00
2013-9-7,78,69,55,64,57,45,79,65,54,0.00,40.00,6,3,10,0.00
2013-9-8,71,62,55,64,48,-100,84,72,51,0.00,40.00,4,1,9,0.00
2013-9-9,72,67,53,67,61,48,85,82,72,0.00,40.00,3,2,9,0.00
2013-9-10,95,91,86,71,69,67,57,49,40,0.00,40.00,6,4,14,0.00
2013-9-11,82,80,80,71,70,69,73,71,68,0.00,40.00,2,1,7,0.00
2013-9-12,71,68,64,65,62,58,86,81,69,0.00,40.00,2,2,6,0.00
2013-9-13,59,58,58,46,45,44,63,61,57,0.00,40.00,6,4,14,0.00
2013-9-14,60,56,51,47,45,43,85,68,52,0.00,40.00,4,2,9,0.00
2013-9-15,63,47,49,55,25,-100,84,64,69,0.00,40.00,2,1,6,0.00
2013-9-16,60,58,56,54,54,53,92,84,77,0.00,40.00,6,3,12,0.00
2013-9-17,52,52,52,48,48,48,86,86,86,0.00,40.00,1,1,4,0.00
2013-9-18,49,49,49,43,43,43,78,78,78,0.00,40.00,1,1,4,0.00
2013-9-19,76,69,59,64,62,56,90,78,63,0.00,40.00,5,3,14,0.00
2013-9-20,76,71,63,68,66,61,91,82,77,0.00,40.00,4,4,12,0.00
2013-9-21,68,61,56,66,58,53,94,91,79,0.00,40.00,2,2,7,1.69
2013-9-23,58,57,56,44,43,43,62,60,58,0.00,40.00,3,2,7,0.00
2013-9-25,68,57,43,53,49,41,92,77,58,0.00,40.00,4,2,9,0.00
2013-9-26,68,56,47,51,48,45,92,76,53,0.00,40.00,4,1,8,0.00
2013-9-27,70,63,50,54,52,47,89,67,52,0.00,40.00,6,4,12,0.00
2013-9-28,75,62,51,53,51,49,92,70,42,0.00,40.00,5,2,9,0.00
2013-9-29,70,56,53,60,45,-100,84,74,62,0.00,40.00,6,4,15,0.00
2013-9-30,67,63,58,61,59,56,91,86,79,0.00,40.00,3,2,7,0.00
2013-10-1,62,61,60,57,57,57,90,87,84,0.00,40.00,1,1,5,0.00
2013-10-2,75,66,56,63,59,53,90,77,62,0.00,40.00,7,3,13,0.00
2013-10-3,78,68,55,66,62,53,93,82,64,0.00,40.00,7,2,22,0.00
2013-10-4,77,72,69,66,65,65,86,80,68,0.00,40.00,6,2,11,1.10
2013-10-5,77,72,69,68,67,65,92,85,66,0.00,40.00,2,1,6,0.00
2013-10-6,78,76,74,65,64,63,68,65,61,0.00,40.00,6,3,14,0.00
2013-10-7,56,55,52,48,46,41,73,70,59,0.00,40.00,7,5,19,0.00
2013-10-10,67,52,46,49,43,39,90,72,48,0.00,40.00,3,2,7,0.00
2013-10-11,72,57,45,53,46,43,92,72,38,0.00,40.00,4,2,9,0.00
2013-10-12,74,61,51,59,53,43,91,75,58,0.00,40.00,6,2,8,0.00
2013-10-13,69,61,59,60,54,-100,92,83,71,0.00,40.00,6,2,12,1.10
2013-10-14,62,56,44,54,46,41,90,72,53,0.00,40.00,9,2,12,0.00
2013-10-15,67,56,42,58,51,40,91,83,69,0.00,40.00,6,3,15,0.00
2013-10-16,70,61,54,60,56,46,93,84,71,0.00,40.00,6,3,15,3.94
2013-10-17,61,51,46,50,46,43,92,83,51,0.00,40.00,7,2,17,2.83
2013-10-18,63,51,45,46,43,39,93,78,42,0.00,40.00,7,4,17,4.48
2013-10-19,54,49,46,45,43,42,92,80,64,0.00,40.00,5,3,10,2.79
2013-10-20,58,53,47,40,38,33,69,57,40,0.00,40.00,10,4,17,0.00
2013-10-21,65,56,46,50,42,37,89,62,35,0.00,40.00,8,4,19,0.55
2013-10-22,50,45,41,47,36,28,92,70,45,0.00,40.00,10,4,19,0.00
2013-10-23,47,43,39,40,33,27,85,69,47,0.00,40.00,7,3,14,1.10
2013-10-24,40,38,34,35,34,32,90,84,79,0.00,40.00,6,4,15,0.55
2013-10-25,45,43,42,38,34,31,83,69,60,0.00,40.00,9,5,16,0.00
2013-10-27,49,47,45,32,31,30,58,53,48,0.00,40.00,6,4,11,0.00
2013-10-28,55,48,42,42,39,35,80,70,54,0.00,40.00,6,3,12,0.00
2013-10-29,56,51,41,36,34,32,83,52,40,0.00,40.00,4,2,8,0.00
2013-10-30,65,50,40,44,38,34,84,67,37,0.00,40.00,4,2,9,0.00
2013-10-31,67,60,55,57,55,48,92,84,68,0.00,40.00,10,6,24,5.63
2013-11-1,52,52,52,40,40,40,65,65,65,0.00,40.00,12,12,25,0.00
2013-11-3,42,39,32,30,28,25,75,65,59,0.00,40.00,5,3,12,0.00
2013-11-4,44,39,33,21,18,16,60,43,32,0.00,40.00,7,4,12,0.00
2013-11-5,55,55,54,36,36,35,48,47,47,0.00,40.00,6,6,11,0.00
2013-11-6,64,64,64,45,45,45,49,49,49,0.00,40.00,4,4,21,0.00
2013-11-7,41,41,41,28,28,28,60,60,60,0.00,40.00,6,6,0,0.00
2013-11-8,42,41,40,29,27,24,64,57,49,0.00,40.00,7,5,16,0.00
2013-11-9,56,55,51,33,32,27,40,40,39,0.00,40.00,6,4,13,0.00
2013-11-10,46,45,45,30,30,29,54,53,53,0.00,40.00,12,10,27,0.00
2013-11-12,36,33,32,26,23,21,71,67,63,0.00,40.00,4,3,11,0.00
2013-11-13,33,33,33,21,18,15,60,53,46,0.00,40.00,3,3,11,0.00
2013-11-14,49,38,34,20,16,14,44,41,31,0.00,40.00,4,3,12,0.00
2013-11-15,52,48,39,28,24,20,55,40,28,0.00,40.00,4,2,12,0.00
2013-11-16,58,51,39,47,40,28,72,65,56,0.00,40.00,10,5,21,0.00
2013-11-17,63,62,61,54,54,53,76,74,72,0.00,40.00,13,10,29,0.00
2013-11-20,46,41,31,23,18,15,69,41,28,0.00,40.00,7,5,19,0.00
2013-11-26,35,33,31,30,26,16,93,78,46,0.00,40.00,6,2,16,6.05
2013-11-27,33,28,24,30,21,15,93,73,62,0.00,40.00,9,4,17,1.10
2013-11-28,29,27,25,21,17,15,82,67,59,0.00,40.00,7,3,16,0.55
2013-11-29,33,29,26,23,20,17,75,68,60,0.00,40.00,2,1,6,0.55
2013-11-30,39,31,24,24,18,-100,74,62,50,0.00,40.00,9,5,18,0.00
2013-12-1,43,37,31,29,27,24,75,66,54,0.00,40.00,7,2,12,0.00
2013-12-2,40,37,33,33,31,29,84,78,75,0.00,40.00,4,1,6,0.00
2013-12-3,44,42,40,36,34,32,76,75,73,0.00,40.00,4,2,9,0.00
2013-12-4,56,45,41,45,38,36,82,75,62,0.00,40.00,6,4,12,0.00
2013-12-5,57,43,38,50,35,30,77,73,68,0.00,40.00,12,8,22,0.00
2013-12-6,32,32,32,23,22,22,67,66,65,0.00,40.00,2,1,5,0.00
2013-12-7,25,24,24,15,15,14,66,65,63,0.00,40.00,2,1,7,0.00
2013-12-8,27,26,26,15,14,14,61,60,57,0.00,40.00,6,5,10,0.00
2013-12-9,34,32,30,23,22,20,68,65,62,0.00,40.00,11,7,20,0.00
2013-12-10,28,25,22,16,10,2,76,52,32,0.00,40.00,17,9,29,0.00
2013-12-11,24,21,19,21,15,10,91,75,61,0.00,40.00,11,5,17,10.62
2013-12-12,20,17,13,10,4,-4,84,55,34,0.00,40.00,12,6,20,0.00
2013-12-13,31,24,19,18,14,6,79,64,56,0.00,40.00,9,4,18,0.00
2013-12-14,25,23,22,20,20,20,90,87,80,0.00,40.00,4,2,6,3.85
2013-12-24,20,18,13,17,12,7,89,75,61,0.00,40.00,12,5,20,9.56
2013-12-25,25,20,8,15,11,5,86,68,55,0.00,40.00,10,3,17,0.55
2013-12-26,30,27,22,26,20,16,91,74,63,0.00,40.00,15,7,30,1.65
2013-12-27,40,34,24,27,25,17,79,68,58,0.00,40.00,9,4,16,1.10
2013-12-28,53,44,39,32,26,-100,61,52,44,0.00,40.00,12,4,18,0.00
2013-12-29,44,42,28,36,28,23,89,60,44,0.00,40.00,7,4,19,0.00
2013-12-30,27,20,17,24,14,10,90,79,70,0.00,40.00,5,2,11,2.20